Tracking 31028 objects as of 17-Jul-2025
HD Live streaming from Space Station
objects crossing your sky now

STARLINK-6306

Track STARLINK-6306 now!
10-day predictions
STARLINK-6306 is classified as:


NORAD ID: 57242
Int'l Code: 2023-094AA
Perigee: 565.3 km
Apogee: 567.1 km
Inclination: 43.0 °
Period: 95.8 minutes
Semi major axis: 6937 km
RCS: Unknown
Launch date: July 7, 2023
Source: United States (US)
Launch site: AIR FORCE WESTERN TEST RANGE (AFWTR)
Your satellite tracking list
Your tracking list is empty




NASA's NSSDC Master Catalog

Two Line Element Set (TLE):
1 57242U 23094AA  25198.41814458 -.00000283  00000-0 -59016-5 0  9999
2 57242  43.0023 216.1890 0001350 284.0530  76.0162 15.02538988111871
Source of the keplerian elements: AFSPC